When you browse on this site, cookies collect data to enhance your experience and personalize the content and advertising you see.
Visit our Privacy Policy to learn more. By continuing to use the site, you agree to this use of cookies and data.
  • In Hungary
  • List of Countries
  • For 7 days
  • Water Temperature
  • Weather Map
  • News
  • Weather Widgets
  • user-avatar
    Login

    Hourly Weather Phoenix

    Today, 13 November, Wednesday

    Time Temperature Precipitation Wind Pressure Humidity
    00:00 +20°C° 0 mm 2 mps 733 mmHg 32%
    01:00 +20°C° 0 mm 2 mps 733 mmHg 33%
    02:00 +19°C° 0 mm 2 mps 732 mmHg 34%
    03:00 +19°C° 0 mm 2 mps 732 mmHg 34%
    04:00 +18°C° 0 mm 2 mps 732 mmHg 35%
    05:00 +18°C° 0 mm 2 mps 732 mmHg 35%
    06:00 +18°C° 0 mm 2 mps 732 mmHg 35%
    07:00 +18°C° 0 mm 2 mps 732 mmHg 34%
    08:00 +18°C° 0 mm 2 mps 732 mmHg 34%
    09:00 +20°C° 0 mm 2 mps 732 mmHg 31%
    10:00 +21°C° 0 mm 2 mps 732 mmHg 29%
    11:00 +23°C° 0 mm 2 mps 732 mmHg 26%
    12:00 +24°C° 0 mm 1 mps 732 mmHg 25%
    13:00 +25°C° 0 mm 1 mps 731 mmHg 24%
    14:00 +26°C° 0 mm 1 mps 730 mmHg 22%
    15:00 +26°C° 0 mm 1 mps 730 mmHg 23%
    16:00 +26°C° 0 mm 1 mps 730 mmHg 24%
    17:00 +24°C° 0 mm 0 mps 730 mmHg 25%
    18:00 +23°C° 0 mm 0 mps 731 mmHg 26%
    19:00 +22°C° 0 mm 0 mps 731 mmHg 27%
    20:00 +22°C° 0 mm 0 mps 731 mmHg 28%
    21:00 +23°C° 0 mm 1 mps 732 mmHg 28%
    22:00 +23°C° 0 mm 1 mps 732 mmHg 29%
    23:00 +23°C° 0 mm 1 mps 732 mmHg 29%

    Tomorrow, 14 November, Thursday

    Time Temperature Precipitation Wind Pressure Humidity
    00:00 +22°C° 0 mm 1 mps 732 mmHg 30%
    01:00 +22°C° 0 mm 1 mps 732 mmHg 30%
    02:00 +21°C° 0 mm 1 mps 732 mmHg 31%
    03:00 +21°C° 0 mm 1 mps 732 mmHg 32%
    04:00 +21°C° 0 mm 1 mps 732 mmHg 33%
    05:00 +20°C° 0 mm 1 mps 733 mmHg 33%
    06:00 +21°C° 0 mm 1 mps 733 mmHg 33%
    07:00 +21°C° 0 mm 1 mps 733 mmHg 33%
    08:00 +21°C° 0 mm 1 mps 734 mmHg 33%
    09:00 +23°C° 0 mm 1 mps 734 mmHg 30%
    10:00 +24°C° 0 mm 1 mps 734 mmHg 26%
    11:00 +26°C° 0 mm 1 mps 734 mmHg 23%
    12:00 +27°C° 0 mm 1 mps 734 mmHg 22%
    13:00 +28°C° 0 mm 1 mps 734 mmHg 21%
    14:00 +28°C° 0 mm 1 mps 733 mmHg 20%
    15:00 +28°C° 0 mm 1 mps 733 mmHg 21%
    16:00 +28°C° 0 mm 1 mps 733 mmHg 22%
    17:00 +25°C° 0 mm 0 mps 733 mmHg 23%
    18:00 +26°C° 0 mm 1 mps 733 mmHg 23%
    19:00 +26°C° 0 mm 1 mps 734 mmHg 24%
    20:00 +25°C° 0 mm 1 mps 734 mmHg 25%
    21:00 +24°C° 0 mm 1 mps 734 mmHg 26%
    22:00 +24°C° 0 mm 1 mps 734 mmHg 27%
    23:00 +24°C° 0 mm 1 mps 734 mmHg 27%

    Day after tomorrow, 15 November, Friday

    Time Temperature Precipitation Wind Pressure Humidity
    00:00 +23°C° 0 mm 1 mps 734 mmHg 28%
    01:00 +23°C° 0 mm 1 mps 734 mmHg 28%
    02:00 +23°C° 0 mm 1 mps 734 mmHg 29%
    03:00 +22°C° 0 mm 1 mps 734 mmHg 30%
    04:00 +22°C° 0 mm 1 mps 734 mmHg 30%
    05:00 +21°C° 0 mm 1 mps 734 mmHg 31%
    06:00 +22°C° 0 mm 1 mps 734 mmHg 31%
    07:00 +22°C° 0 mm 1 mps 734 mmHg 30%
    08:00 +21°C° 0 mm 2 mps 734 mmHg 30%
    09:00 +24°C° 0 mm 2 mps 734 mmHg 27%
    10:00 +25°C° 0 mm 2 mps 734 mmHg 25%
    11:00 +27°C° 0 mm 2 mps 734 mmHg 22%
    12:00 +27°C° 0 mm 2 mps 733 mmHg 21%
    13:00 +28°C° 0 mm 2 mps 733 mmHg 20%
    14:00 +29°C° 0 mm 2 mps 732 mmHg 19%
    15:00 +28°C° 0 mm 1 mps 732 mmHg 20%
    16:00 +28°C° 0 mm 1 mps 732 mmHg 22%
    17:00 +27°C° 0 mm 1 mps 732 mmHg 23%
    18:00 +27°C° 0 mm 1 mps 732 mmHg 24%
    19:00 +26°C° 0 mm 1 mps 732 mmHg 25%
    20:00 +25°C° 0 mm 1 mps 732 mmHg 25%
    21:00 +25°C° 0 mm 1 mps 732 mmHg 26%
    22:00 +24°C° 0 mm 1 mps 732 mmHg 26%
    23:00 +24°C° 0 mm 1 mps 732 mmHg 27%

    16 November, Saturday

    Time Temperature Precipitation Wind Pressure Humidity
    00:00 +24°C° 0 mm 1 mps 732 mmHg 27%
    01:00 +23°C° 0 mm 1 mps 732 mmHg 28%
    02:00 +23°C° 0 mm 1 mps 732 mmHg 29%
    03:00 +22°C° 0 mm 1 mps 732 mmHg 30%
    04:00 +22°C° 0 mm 1 mps 732 mmHg 30%
    05:00 +22°C° 0 mm 1 mps 732 mmHg 31%
    06:00 +22°C° 0 mm 1 mps 732 mmHg 31%
    07:00 +22°C° 0 mm 1 mps 732 mmHg 31%
    08:00 +22°C° 0 mm 1 mps 733 mmHg 31%
    09:00 +24°C° 0 mm 1 mps 733 mmHg 27%
    10:00 +25°C° 0 mm 1 mps 733 mmHg 24%
    11:00 +27°C° 0 mm 1 mps 733 mmHg 21%
    12:00 +28°C° 0 mm 1 mps 733 mmHg 20%
    13:00 +29°C° 0 mm 1 mps 732 mmHg 19%
    14:00 +29°C° 0 mm 1 mps 731 mmHg 18%
    15:00 +29°C° 0 mm 1 mps 731 mmHg 18%
    16:00 +29°C° 0 mm 2 mps 731 mmHg 19%
    17:00 +28°C° 0 mm 2 mps 731 mmHg 19%
    18:00 +27°C° 0 mm 1 mps 731 mmHg 21%
    19:00 +26°C° 0 mm 1 mps 732 mmHg 22%
    20:00 +25°C° 0 mm 1 mps 732 mmHg 24%
    21:00 +25°C° 0 mm 1 mps 732 mmHg 24%
    22:00 +24°C° 0 mm 1 mps 732 mmHg 25%
    23:00 +22°C° 0 mm 0 mps 733 mmHg 25%

    17 November, Sunday

    Time Temperature Precipitation Wind Pressure Humidity
    00:00 +23°C° 0 mm 1 mps 733 mmHg 26%
    01:00 +23°C° 0 mm 1 mps 733 mmHg 26%
    02:00 +22°C° 0 mm 1 mps 733 mmHg 27%
    03:00 +21°C° 0 mm 2 mps 733 mmHg 27%
    04:00 +21°C° 0 mm 2 mps 733 mmHg 27%
    05:00 +20°C° 0 mm 2 mps 733 mmHg 27%
    06:00 +20°C° 0 mm 2 mps 734 mmHg 25%
    07:00 +20°C° 0 mm 2 mps 734 mmHg 24%
    08:00 +20°C° 0 mm 2 mps 735 mmHg 23%
    09:00 +23°C° 0 mm 2 mps 735 mmHg 20%
    10:00 +25°C° 0 mm 2 mps 735 mmHg 18%
    11:00 +27°C° 0 mm 2 mps 735 mmHg 15%
    12:00 +27°C° 0 mm 2 mps 734 mmHg 14%
    13:00 +28°C° 0 mm 1 mps 733 mmHg 13%
    14:00 +29°C° 0 mm 1 mps 733 mmHg 12%
    15:00 +29°C° 0 mm 1 mps 733 mmHg 13%
    16:00 +28°C° 0 mm 1 mps 732 mmHg 15%
    17:00 +28°C° 0 mm 1 mps 732 mmHg 16%
    18:00 +27°C° 0 mm 1 mps 732 mmHg 17%
    19:00 +26°C° 0 mm 1 mps 733 mmHg 17%
    20:00 +25°C° 0 mm 1 mps 733 mmHg 18%
    21:00 +24°C° 0 mm 1 mps 733 mmHg 19%
    22:00 +24°C° 0 mm 1 mps 733 mmHg 20%
    23:00 +21°C° 0 mm 0 mps 733 mmHg 21%

    18 November, Monday

    Time Temperature Precipitation Wind Pressure Humidity
    00:00 +21°C° 0 mm 0 mps 733 mmHg 21%
    01:00 +20°C° 0 mm 0 mps 732 mmHg 22%
    02:00 +20°C° 0 mm 0 mps 732 mmHg 22%
    03:00 +20°C° 0 mm 0 mps 732 mmHg 23%
    04:00 +21°C° 0 mm 1 mps 732 mmHg 23%
    05:00 +21°C° 0 mm 1 mps 732 mmHg 23%
    06:00 +21°C° 0 mm 1 mps 732 mmHg 23%
    07:00 +21°C° 0 mm 1 mps 732 mmHg 22%
    08:00 +21°C° 0 mm 1 mps 732 mmHg 22%
    09:00 +23°C° 0 mm 1 mps 732 mmHg 19%
    10:00 +25°C° 0 mm 1 mps 732 mmHg 17%
    11:00 +26°C° 0 mm 1 mps 732 mmHg 15%
    12:00 +27°C° 0 mm 1 mps 731 mmHg 14%
    13:00 +28°C° 0 mm 1 mps 730 mmHg 14%
    14:00 +29°C° 0 mm 1 mps 729 mmHg 13%
    15:00 +28°C° 0 mm 1 mps 729 mmHg 15%
    16:00 +26°C° 0 mm 0 mps 729 mmHg 16%
    17:00 +25°C° 0 mm 0 mps 728 mmHg 17%
    18:00 +24°C° 0 mm 0 mps 729 mmHg 18%
    19:00 +23°C° 0 mm 0 mps 729 mmHg 19%
    20:00 +22°C° 0 mm 0 mps 729 mmHg 19%
    21:00 +22°C° 0 mm 0 mps 729 mmHg 20%
    22:00 +24°C° 0 mm 1 mps 729 mmHg 20%
    23:00 +23°C° 0 mm 1 mps 729 mmHg 20%
    Show more